Flag for Ireland Weather past 2 weeks in Cork, Ireland

56 °F

Low clouds.

Feels Like: 54 °F
Forecast: 53 / 57 °F
Wind: 8 mph from South

Location: Cork Airport

Current Time: Oct 9, 2015 at 1:29:18 PM

Latest Report: Oct 9, 2015 at 12:00 PM

Visibility: 19 mi

Pressure: 30.11 "Hg

Humidity: 94%

Dew point: 55 °F

Location of CorkLocation

Historic Weather in Cork — Graph


Cork temperature yesterday

Maximum temperature yesterday: 58 °F (at 4:00 PM)
Minimum temperature yesterday: 46 °F (at 7:00 AM)
Average temperature yesterday: 52 °F

Past Weeks' High & Low Weather Summary

High60 °F (Sep 28, 2:00 PM)100% (Sep 27, 6:00 AM)30.55 "Hg (Sep 27, 6:00 AM)
Low44 °F (Oct 2, 7:00 AM)61% (Sep 25, 3:00 PM)29.23 "Hg (Oct 5, 11:00 PM)
Average53 °F90%30.12 "Hg
* Reported Sep 24 12:00 Noon — Oct 9 12:00 Noon, Cork, Weather by CustomWeather, © 2015

Note: Actual official high and low records may vary slightly from our data, if they occured in-between our weather recording intervals... More about our weather records


Cork weather history for previous 24 hours

Time TempWeatherWind HumidityBarometerVisibility
12:00 PM
Fri, Oct 9
56 °FLow clouds.8 mph94%30.11 "Hg19 mi
11:00 AM56 °FLow clouds.6 mph97%30.11 "Hg19 mi
10:00 AM55 °FLow clouds.5 mph99%30.11 "Hg19 mi
9:00 AM53 °FLow clouds.5 mph99%30.10 "Hg17 mi
8:00 AM54 °FLow clouds.5 mph100%30.10 "Hg14 mi
7:00 AM54 °FLow clouds.5 mph100%30.09 "Hg16 mi
6:00 AM54 °FLow clouds.3 mph100%30.09 "Hg16 mi
5:00 AM54 °FLow clouds.2 mph100%30.09 "Hg16 mi
4:00 AM54 °FLow clouds.3 mph100%30.10 "Hg16 mi
3:00 AM53 °FLow clouds.3 mph100%30.11 "Hg16 mi
2:00 AM53 °FLow clouds.3 mph100%30.11 "Hg12 mi
1:00 AM54 °FLight rain. Low clouds.3 mph100%30.12 "Hg3 mi
12:00 AM54 °FDrizzle. Low clouds.3 mph100%30.12 "Hg3 mi
11:00 PM
Thu, Oct 8
54 °FLow clouds.3 mph100%30.13 "Hg19 mi
9:00 PM53 °FLow clouds.2 mph100%30.13 "Hg16 mi
8:00 PM55 °FDrizzle. Low clouds.3 mph100%30.12 "Hg16 mi
7:00 PM55 °FLow clouds.2 mph99%30.11 "Hg19 mi
6:00 PM55 °FPartly sunny.5 mph94%30.10 "Hg22 mi
5:00 PM56 °FLow clouds.3 mph95%30.10 "Hg28 mi
4:00 PM58 °FPartly sunny.5 mph92%30.10 "Hg12 mi
3:00 PM57 °FPartly sunny.5 mph89%30.11 "Hg25 mi
2:00 PM55 °FSprinkles. Low clouds.3 mph97%30.12 "Hg4 mi
1:00 PM55 °FSprinkles. Partly sunny.6 mph93%30.11 "Hg28 mi
Weather by CustomWeather, © 2015

See weather overviewHow to use our weather pages